Home > Weather > Włocławek > Past weeks

Flag for Poland Past Weather in Włocławek, Poland — Yesterday and Last 2 Weeks

Now
78 °F

Warm.


Feels Like: 79 °F
Forecast: 62 / 76 °F
Wind: 5 mph from Northwest

Location: Plock

Current Time: Jul 28, 2016 at 6:45:06 PM

Latest Report: Jul 28, 2016 at 3:00 PM


Visibility: 19 mi

Pressure: 29.93 "Hg

Humidity: 60%

Dew Point: 63 °F

Location of WłocławekLocation

Past Weather in Włocławek — Graph

°F

Włocławek Temperature Yesterday

Maximum temperature yesterday: 83 °F (at 12:00 PM)
Minimum temperature yesterday: 62 °F (at 5:00 AM)
Average temperature yesterday: 71 °F

High & Low Weather Summary for the Past Weeks

 TemperatureHumidityPressure
High86 °F (Jul 26, 5:00 PM)98% (Jul 20, 7:00 AM)30.20 "Hg (Jul 20, 7:00 AM)
Low49 °F (Jul 21, 5:00 AM)31% (Jul 21, 3:00 PM)29.50 "Hg (Jul 14, 5:00 PM)
Average66 °F73%30.02 "Hg
* Reported Jul 13 3:00 PM — Jul 28 3:00 PM, Włocławek, Weather by CustomWeather, © 2016

Note: Actual official high and low records may vary slightly from our data, if they occured in-between our weather recording intervals... More about our weather records

Advertising

Włocławek Weather History for the Previous 24 Hours

Scroll right to see more
 ConditionsComfort  
Time TempWeatherWind HumidityBarometerVisibility
3:00 PM
Thu, Jul 28
78 °FWarm.5 mph60%29.93 "Hg19 mi
2:00 PM76 °FMild.3 mph65%29.95 "Hg13 mi
1:00 PM74 °FMild.3 mph72%29.96 "Hg10 mi
12:00 PM73 °FMild.3 mph75%29.96 "Hg9 mi
11:00 AM72 °FFog.3 mph78%29.95 "Hg6 mi
10:00 AM71 °FFog.3 mph83%29.95 "Hg4 mi
9:00 AM71 °FFog.3 mph86%29.93 "Hg4 mi
8:00 AM70 °FFog.2 mph89%29.93 "Hg4 mi
7:00 AM68 °FFog.2 mph96%29.92 "Hg2 mi
6:00 AM66 °FFog.1 mph97%29.91 "Hg2 mi
5:00 AM66 °FFog.1 mph97%29.91 "Hg2 mi
4:00 AM65 °FFog.No wind96%29.91 "Hg2 mi
3:00 AM65 °FFog.1 mph95%29.92 "Hg2 mi
2:00 AM65 °FFog.1 mph94%29.92 "Hg2 mi
1:00 AM67 °FFog.1 mph92%29.94 "Hg4 mi
12:00 AM67 °FFog.1 mph91%29.95 "Hg5 mi
11:00 PM
Wed, Jul 27
68 °FMild.2 mph89%29.95 "Hg7 mi
10:00 PM70 °FMild.1 mph89%29.95 "Hg7 mi
9:00 PM73 °FMild.2 mph79%29.96 "Hg13 mi
8:00 PM74 °FMild.1 mph80%29.95 "Hg13 mi
7:00 PM75 °FMild.2 mph78%29.93 "Hg11 mi
6:00 PM75 °FMild.2 mph73%29.94 "Hg17 mi
Weather by CustomWeather, © 2016

See weather overviewHow to use our weather pages